N1OTX Weather Reports


time (UTC)temp
C
wind
direction
speed
KPH
gust
KPH
rain 1hr
cm
rain 24hr
cm
rain mn
cm
humidity
%
barometer
mb
20260906082521 15 0.0 0.0 0.30 0.38 0.38 99 1013.2
20260906082021 15 0.0 0.0 0.30 0.38 0.38 99 1013.2
20260906081522 15 0.0 0.0 0.33 0.38 0.38 98 1013.1
20260906081022 15 0.0 0.0 0.33 0.38 0.38 98 1013.1
20260906080522 14 0.0 0.0 0.33 0.36 0.36 97 1013.0
20260906080021 14 0.0 0.0 0.33 0.33 0.33 97 1013.0
20260906075521 15 0.0 0.0 0.28 0.30 0.30 97 1013.1
20260906075021 15 0.0 0.0 0.23 0.25 0.25 96 1013.0
20260906074523 15 0.0 0.0 0.20 0.23 0.23 95 1013.0
20260906074022 15 140 0.0 1.6 0.15 0.18 0.18 94 1013.1
20260906073523 15 139 0.0 4.8 0.13 0.15 0.15 92 1013.0
20260906073022 15 136 1.6 4.8 0.10 0.10 0.10 91 1013.1
20260906072522 16 101 3.2 9.7 0.08 0.10 0.10 94 1013.1
20260906072022 16 103 1.6 9.7 0.05 0.08 0.08 97 1013.0
20260906071522 16 0.0 1.6 0.05 0.05 0.05 97 1012.8
20260906071041 16 111 0.0 1.6 0.03 0.05 0.05 97 1012.9
20260906070521 16 111 0.0 1.6 0.03 0.03 0.03 97 1012.7
20260906070021 16 0.0 0.0 0.03 0.03 0.03 97 1012.8
20260906065521 16 0.0 0.0 0.03 0.03 0.03 97 1012.8
20260906065021 16 0.0 0.0 0.03 0.03 0.03 97 1012.7
20260906064522 16 0.0 0.0 0.00 0.00 0.00 97 1012.7
20260906064022 16 0.0 0.0 0.00 0.00 0.00 97 1012.9
20260906063522 16 0.0 0.0 0.00 0.00 0.00 97 1012.8
20260906063021 16 0.0 0.0 0.00 0.00 0.00 98 1012.9
20260906062522 16 0.0 0.0 0.00 0.00 0.00 98 1012.8
20260906062102 16 0.0 0.0 0.00 0.00 0.00 98 1012.8
20260906061542 16 0.0 0.0 0.00 0.00 0.00 98 1012.7
20260906061042 16 0.0 0.0 0.00 0.00 0.00 98 1012.7
20260906060521 16 0.0 0.0 0.00 0.00 0.00 97 1012.9
20260906060021 16 0.0 0.0 0.00 0.00 0.00 97 1012.8
20260906055521 16 0.0 0.0 0.00 0.00 0.00 97 1012.9
20260906055021 16 0.0 0.0 0.00 0.00 0.00 97 1012.9
20260906054520 16 0.0 0.0 0.00 0.00 0.00 97 1012.8
20260906054042 16 0.0 0.0 0.00 0.00 0.00 97 1012.8
20260906053521 16 0.0 0.0 0.00 0.00 0.00 97 1012.8
20260906053021 16 0.0 0.0 0.00 0.00 0.00 97 1012.7
20260906052601 16 0.0 0.0 0.00 0.00 0.00 97 1012.8
20260906052022 16 0.0 0.0 0.00 0.00 0.00 97 1012.9
20260906051522 16 0.0 0.0 0.00 0.00 0.00 97 1012.9
20260906051022 16 0.0 0.0 0.00 0.00 0.00 97 1013.0
20260906050522 16 0.0 0.0 0.00 0.00 0.00 96 1013.1
20260906050021 16 0.0 0.0 0.00 0.00 0.00 96 1013.1
20260906045526 16 0.0 0.0 0.00 0.00 0.00 96 1013.1
20260906045021 16 0.0 0.0 0.00 0.00 0.00 96 1013.1
20260906044520 16 0.0 0.0 0.00 0.00 0.00 96 1013.2
20260906044020 16 0.0 0.0 0.00 0.00 0.00 96 1013.1
20260906043524 16 0.0 0.0 0.00 0.00 0.00 95 1013.0
20260906043022 16 0.0 0.0 0.00 0.00 0.00 95 1013.0
20260906042522 16 0.0 0.0 0.00 0.00 0.00 95 1012.9
20260906042021 16 0.0 0.0 0.00 0.00 0.00 95 1012.9
20260906041521 16 0.0 0.0 0.00 0.00 0.00 95 1013.0
20260906041023 16 0.0 0.0 0.00 0.00 0.00 95 1012.9
20260906040543 16 0.0 0.0 0.00 0.00 0.00 95 1012.9
20260906040023 16 0.0 0.0 0.00 0.00 0.00 96 1012.9
20260906035522 16 0.0 0.0 0.00 0.00 0.00 96 1012.8
20260906035022 16 0.0 0.0 0.00 0.00 0.00 95 1012.9
20260906034522 16 0.0 0.0 0.00 0.00 0.00 95 1012.7
20260906034042 16 0.0 0.0 0.00 0.00 0.00 95 1012.9
20260906033521 16 0.0 0.0 0.00 0.00 0.00 95 1012.8
20260906033023 16 0.0 0.0 0.00 0.00 0.00 94 1012.6
20260906032523 16 0.0 0.0 0.00 0.00 0.00 94 1012.8
20260906032023 16 0.0 0.0 0.00 0.00 0.00 94 1012.7
20260906031543 16 0.0 0.0 0.00 0.00 0.00 93 1012.5
20260906031022 16 0.0 0.0 0.00 0.00 0.00 93 1012.6
20260906030522 16 0.0 0.0 0.00 0.00 0.00 93 1012.7
20260906030024 16 0.0 0.0 0.00 0.00 0.00 92 1012.5
20260906025521 16 111 0.0 1.6 0.00 0.00 0.00 91 1012.6
20260906025021 16 0.0 1.6 0.00 0.00 0.00 91 1012.6
20260906024523 17 111 0.0 1.6 0.00 0.00 0.00 90 1012.5
20260906024023 17 111 0.0 1.6 0.00 0.00 0.00 90 1012.6
20260906023543 17 111 0.0 1.6 0.00 0.00 0.00 90 1012.6
20260906023042 17 111 0.0 1.6 0.00 0.00 0.00 89 1012.6
20260906022522 17 111 0.0 1.6 0.00 0.00 0.00 88 1012.5
20260906022022 17 111 0.0 1.6 0.00 0.00 0.00 87 1012.5
20260906021541 17 0.0 0.0 0.00 0.00 0.00 86 1012.6
20260906021021 17 0.0 0.0 0.00 0.00 0.00 86 1012.8
20260906020543 17 0.0 0.0 0.00 0.00 0.00 86 1012.8
20260906020023 17 0.0 0.0 0.00 0.00 0.00 86 1012.8
20260906015522 17 0.0 0.0 0.00 0.00 0.00 86 1012.8
20260906015023 17 0.0 0.0 0.00 0.00 0.00 86 1012.6
20260906014547 17 0.0 0.0 0.00 0.00 0.00 86 1012.7
20260906014022 17 0.0 0.0 0.00 0.00 0.00 87 1012.8
20260906013542 17 110 0.0 1.6 0.00 0.00 0.00 86 1012.8
20260906013022 17 0.0 0.0 0.00 0.00 0.00 85 1012.7
20260906012521 17 0.0 0.0 0.00 0.00 0.00 85 1012.8
20260906012023 17 0.0 0.0 0.00 0.00 0.00 84 1012.7
20260906011521 17 0.0 0.0 0.00 0.00 0.00 83 1012.6
20260906011023 17 0.0 0.0 0.00 0.00 0.00 84 1012.7
20260906010522 17 0.0 0.0 0.00 0.00 0.00 83 1012.6
20260906010022 17 0.0 0.0 0.00 0.00 0.00 83 1012.6
20260906005522 17 0.0 0.0 0.00 0.00 0.00 83 1012.6
20260906005042 17 0.0 0.0 0.00 0.00 0.00 83 1012.6
20260906004522 17 0.0 0.0 0.00 0.00 0.00 83 1012.6
20260906004021 17 0.0 0.0 0.00 0.00 0.00 82 1012.4
20260906003521 17 0.0 0.0 0.00 0.00 0.00 82 1012.3
20260906003023 17 0.0 0.0 0.00 0.00 0.00 82 1012.3
20260906002523 17 0.0 0.0 0.00 0.00 0.00 82 1012.4
20260906002023 17 0.0 0.0 0.00 0.00 0.00 82 1012.3
20260906001522 17 0.0 0.0 0.00 0.00 0.00 82 1012.2
20260906001022 17 0.0 0.0 0.00 0.00 0.00 82 1012.2
20260906000521 17 0.0 0.0 0.00 0.00 0.00 81 1012.2
20260906000021 17 0.0 0.0 0.00 0.00 0.00 81 1012.1
20260905235521 17 0.0 0.0 0.00 0.00 0.00 80 1012.2
20260905235021 17 0.0 0.0 0.00 0.00 0.00 80 1012.2
20260905234523 17 0.0 0.0 0.00 0.00 0.00 80 1012.2
20260905234022 17 111 0.0 3.2 0.00 0.00 0.00 79 1012.2
20260905233523 17 110 0.0 3.2 0.00 0.00 0.00 79 1012.0
20260905233022 17 111 1.6 3.2 0.00 0.00 0.00 79 1012.0
20260905232522 17 111 1.6 3.2 0.00 0.00 0.00 79 1011.9
20260905232022 17 111 0.0 1.6 0.00 0.00 0.00 79 1011.9
20260905231521 18 118 1.6 4.8 0.00 0.00 0.00 79 1011.8
20260905231021 18 124 1.6 4.8 0.00 0.00 0.00 79 1011.8
20260905230521 18 120 1.6 4.8 0.00 0.00 0.00 79 1011.6
20260905230021 18 98 1.6 6.4 0.00 0.00 0.00 79 1011.6
20260905225523 18 133 3.2 6.4 0.00 0.00 0.00 79 1011.7
20260905225022 18 128 4.8 11.3 0.00 0.00 0.00 78 1011.6
20260905224522 18 136 4.8 12.9 0.00 0.00 0.00 78 1011.6
20260905224042 18 141 4.8 11.3 0.00 0.00 0.00 78 1011.6
20260905223521 18 125 4.8 9.7 0.00 0.00 0.00 77 1011.6
20260905223021 18 91 3.2 4.8 0.00 0.00 0.00 77 1011.6
20260905222521 18 61 0.0 1.6 0.00 0.00 0.00 76 1011.5
20260905222021 18 63 1.6 4.8 0.00 0.00 0.00 75 1011.5
20260905221522 18 74 1.6 4.8 0.00 0.00 0.00 76 1011.5
20260905221022 18 98 1.6 4.8 0.00 0.00 0.00 75 1011.5
20260905220522 18 87 1.6 4.8 0.00 0.00 0.00 75 1011.4
20260905220022 18 62 1.6 6.4 0.00 0.00 0.00 74 1011.3
20260905215522 19 98 3.2 6.4 0.00 0.00 0.00 74 1011.3
20260905215042 19 106 1.6 4.8 0.00 0.00 0.00 76 1011.3
20260905214521 19 67 1.6 9.7 0.00 0.00 0.00 77 1011.3
20260905214021 19 44 0.0 4.8 0.00 0.00 0.00 78 1011.2
20260905213523 19 61 1.6 6.4 0.00 0.00 0.00 77 1011.2
20260905213023 19 86 3.2 12.9 0.00 0.00 0.00 77 1011.1
20260905212522 19 86 1.6 4.8 0.00 0.00 0.00 77 1011.0
20260905212022 19 77 3.2 11.3 0.00 0.00 0.00 78 1011.0
20260905211522 19 105 4.8 11.3 0.00 0.00 0.00 79 1011.0
20260905211022 19 100 4.8 11.3 0.00 0.00 0.00 79 1011.0
20260905210521 19 93 6.4 12.9 0.00 0.00 0.00 78 1011.0
20260905210021 20 99 8.0 17.7 0.00 0.00 0.00 76 1011.0
20260905205523 20 102 4.8 12.9 0.00 0.00 0.00 75 1010.8
20260905205023 20 92 6.4 14.5 0.00 0.00 0.00 75 1010.9
20260905204523 20 90 4.8 16.1 0.00 0.00 0.00 75 1010.9
20260905204027 20 81 3.2 11.3 0.00 0.00 0.00 77 1010.7
20260905203522 20 101 6.4 12.9 0.00 0.00 0.00 76 1010.7
20260905203022 20 117 6.4 16.1 0.00 0.00 0.00 75 1010.6
20260905202521 20 112 4.8 14.5 0.00 0.00 0.00 75 1010.7
20260905202041 21 126 8.0 14.5 0.00 0.00 0.00 74 1010.7
20260905201521 21 84 8.0 16.1 0.00 0.00 0.00 72 1010.5
20260905201021 21 73 3.2 12.9 0.00 0.00 0.00 72 1010.5
20260905200523 21 73 4.8 12.9 0.00 0.00 0.00 70 1010.3
20260905200022 21 79 3.2 16.1 0.00 0.00 0.00 69 1010.1
20260905195543 21 85 8.0 17.7 0.00 0.00 0.00 68 1010.2
20260905195042 21 73 4.8 17.7 0.00 0.00 0.00 68 1010.1
20260905194522 22 97 4.8 9.7 0.00 0.00 0.00 70 1010.0
20260905194021 21 109 4.8 14.5 0.00 0.00 0.00 69 1010.2
20260905193541 21 104 3.2 20.9 0.00 0.00 0.00 70 1010.2
20260905193021 22 71 6.4 20.9 0.00 0.00 0.00 69 1010.3
20260905192523 22 107 6.4 14.5 0.00 0.00 0.00 69 1010.3
20260905192023 22 106 8.0 14.5 0.00 0.00 0.00 70 1010.3
20260905191520 22 106 6.4 16.1 0.00 0.00 0.00 70 1010.3
20260905191043 22 116 8.0 16.1 0.00 0.00 0.00 70 1010.2
20260905190522 21 86 6.4 12.9 0.00 0.00 0.00 72 1010.2
20260905190022 21 118 6.4 14.5 0.00 0.00 0.00 72 1010.3
20260905185541 21 103 6.4 14.5 0.00 0.00 0.00 71 1010.4
20260905185021 21 81 6.4 14.5 0.00 0.00 0.00 71 1010.3
20260905184521 21 104 8.0 16.1 0.00 0.00 0.00 72 1010.4
20260905184022 21 107 6.4 12.9 0.00 0.00 0.00 72 1010.4
20260905183523 21 99 8.0 16.1 0.00 0.00 0.00 72 1010.4
20260905183022 21 115 8.0 14.5 0.00 0.00 0.00 75 1010.4
20260905182042 20 78 1.6 4.8 0.00 0.00 0.00 77 1010.5
20260905181522 20 81 3.2 9.7 0.00 0.00 0.00 76 1010.5
20260905181021 20 91 4.8 16.1 0.00 0.00 0.00 77 1010.5
20260905180606 20 86 4.8 11.3 0.00 0.00 0.00 77 1010.5
20260905180023 20 93 6.4 17.7 0.00 0.00 0.00 77 1010.5
20260905175523 20 89 8.0 22.5 0.00 0.00 0.00 76 1010.4
20260905175022 20 93 4.8 11.3 0.00 0.00 0.00 76 1010.3
20260905174522 20 103 3.2 24.1 0.00 0.00 0.00 75 1010.3
20260905174022 21 46 1.6 4.8 0.00 0.00 0.00 74 1010.1
20260905173522 21 56 3.2 16.1 0.00 0.00 0.00 73 1010.1
20260905173021 21 95 4.8 11.3 0.00 0.00 0.00 72 1010.0
20260905172521 21 62 1.6 4.8 0.00 0.00 0.00 72 1010.0
20260905172021 21 128 3.2 6.4 0.00 0.00 0.00 72 1009.9
20260905171521 21 108 1.6 6.4 0.00 0.00 0.00 73 1009.8
20260905171023 21 57 1.6 6.4 0.00 0.00 0.00 73 1009.8
20260905170522 21 8 1.6 6.4 0.00 0.00 0.00 73 1009.8
20260905170022 21 85 1.6 6.4 0.00 0.00 0.00 73 1009.9
20260905165522 21 323 1.6 3.2 0.00 0.00 0.00 73 1009.8
20260905165022 21 4 1.6 4.8 0.00 0.00 0.00 73 1009.9
20260905164522 21 88 3.2 6.4 0.00 0.00 0.00 74 1009.8
20260905164021 21 91 1.6 9.7 0.00 0.00 0.00 73 1009.8
20260905163521 21 317 1.6 4.8 0.00 0.00 0.00 72 1009.8
20260905163043 21 322 1.6 4.8 0.00 0.00 0.00 72 1009.8
20260905162523 20 305 0.0 3.2 0.00 0.00 0.00 72 1009.9
20260905162023 20 352 1.6 11.3 0.00 0.00 0.00 72 1009.9
20260905161602 20 86 3.2 11.3 0.00 0.00 0.00 73 1009.8
20260905161022 20 355 1.6 3.2 0.00 0.00 0.00 72 1010.0
20260905160522 21 22 1.6 3.2 0.00 0.00 0.00 73 1010.0
20260905160021 21 66 1.6 9.7 0.00 0.00 0.00 72 1009.8
20260905155541 21 78 3.2 12.9 0.00 0.00 0.00 73 1009.8
20260905155021 20 29 1.6 4.8 0.00 0.00 0.00 75 1009.9
20260905154522 20 35 0.0 6.4 0.00 0.00 0.00 75 1009.9
20260905154022 20 355 1.6 11.3 0.00 0.00 0.00 75 1010.0
20260905153527 20 75 1.6 6.4 0.00 0.00 0.00 76 1010.0
20260905153022 20 127 1.6 6.4 0.00 0.00 0.00 77 1010.0
20260905152543 20 69 1.6 6.4 0.00 0.00 0.00 79 1009.9
20260905152102 20 51 1.6 6.4 0.00 0.00 0.00 78 1009.9
20260905151521 20 347 1.6 9.7 0.00 0.00 0.00 77 1009.8
20260905151041 20 23 1.6 9.7 0.00 0.00 0.00 77 1009.8
20260905150521 20 338 0.0 3.2 0.00 0.00 0.00 77 1009.7
20260905150043 20 333 1.6 3.2 0.00 0.00 0.00 78 1009.8
20260905145542 20 345 0.0 4.8 0.00 0.00 0.00 77 1009.8
20260905144522 20 29 1.6 4.8 0.00 0.00 0.00 77 1009.8
20260905144022 20 321 1.6 3.2 0.00 0.00 0.00 77 1009.8
20260905143522 20 330 1.6 4.8 0.00 0.00 0.00 76 1009.8
20260905143122 20 347 1.6 3.2 0.00 0.00 0.00 76 1009.7
20260905142522 20 343 1.6 3.2 0.00 0.00 0.00 78 1009.8
20260905142021 20 16 0.0 3.2 0.00 0.00 0.00 79 1009.7
20260905141521 20 43 0.0 3.2 0.00 0.00 0.00 79 1009.8
20260905141021 20 347 0.0 3.2 0.00 0.00 0.00 80 1009.9
20260905140523 20 341 0.0 3.2 0.00 0.00 0.00 80 1009.9
20260905140022 20 344 0.0 1.6 0.00 0.00 0.00 80 1009.9
20260905135522 20 344 0.0 3.2 0.00 0.00 0.00 80 1009.9
20260905135102 20 53 1.6 3.2 0.00 0.00 0.00 79 1009.9
20260905133021 20 71 1.6 4.8 0.00 0.00 0.00 80 1009.6
20260905132521 20 331 1.6 3.2 0.00 0.00 0.00 80 1009.6
20260905132021 20 342 0.0 3.2 0.00 0.00 0.00 81 1009.5
20260905131520 20 342 1.6 3.2 0.00 0.00 0.00 80 1009.5
20260905131022 20 330 1.6 3.2 0.00 0.00 0.00 79 1009.5
20260905130522 20 63 1.6 3.2 0.00 0.00 0.00 80 1009.4
20260905130022 20 13 1.6 3.2 0.00 0.00 0.00 79 1009.4
20260905125521 20 31 1.6 11.3 0.00 0.00 0.00 79 1009.5
20260905125021 20 65 1.6 6.4 0.00 0.00 0.00 80 1009.4
20260905124521 19 351 0.0 3.2 0.00 0.00 0.00 80 1009.3
20260905124021 19 333 1.6 3.2 0.00 0.00 0.00 82 1009.4
20260905123521 19 332 0.0 3.2 0.00 0.00 0.00 81 1009.2
20260905123043 19 6 1.6 4.8 0.00 0.00 0.00 81 1009.1
20260905122542 19 350 0.0 1.6 0.00 0.00 0.00 83 1009.2
20260905122022 18 347 1.6 3.2 0.00 0.00 0.00 83 1009.1
20260905121522 18 346 0.0 3.2 0.00 0.00 0.00 84 1009.0
20260905121022 18 327 0.0 3.2 0.00 0.00 0.00 85 1009.0
20260905120521 18 346 0.0 1.6 0.00 0.00 0.00 86 1008.9
20260905120041 18 0.0 0.0 0.00 0.00 0.00 87 1009.0
20260905115521 17 344 0.0 3.2 0.00 0.00 0.00 88 1009.0
20260905115024 17 0.0 0.0 0.00 0.00 0.00 88 1008.8
20260905114522 17 61 0.0 3.2 0.00 0.00 0.00 88 1008.8
20260905114022 17 93 0.0 1.6 0.00 0.00 0.00 88 1008.9
20260905113522 17 0.0 1.6 0.00 0.00 0.00 89 1008.8
20260905113021 17 0.0 0.0 0.00 0.00 0.00 89 1008.8
20260905112521 17 0.0 0.0 0.00 0.00 0.00 90 1008.7
20260905112041 16 0.0 0.0 0.00 0.00 0.00 91 1008.7
20260905111523 16 0.0 0.0 0.00 0.00 0.00 92 1008.6
20260905111021 16 0.0 0.0 0.00 0.00 0.00 93 1008.6
20260905110522 16 0.0 0.0 0.00 0.00 0.00 94 1008.5
20260905110022 15 0.0 0.0 0.00 0.00 0.00 96 1008.5
20260905105527 15 0.0 0.0 0.00 0.00 0.00 96 1008.4
20260905105022 15 0.0 0.0 0.00 0.00 0.00 96 1008.4
20260905104521 15 0.0 0.0 0.00 0.00 0.00 97 1008.4
20260905104021 15 0.0 0.0 0.00 0.00 0.00 97 1008.5
20260905103521 15 0.0 0.0 0.00 0.00 0.00 97 1008.4
20260905103021 15 0.0 0.0 0.00 0.00 0.00 97 1008.4
20260905102523 15 0.0 0.0 0.00 0.00 0.00 97 1008.4
20260905102023 15 0.0 0.0 0.00 0.00 0.00 97 1008.4
20260905101522 15 0.0 0.0 0.00 0.00 0.00 97 1008.4
20260905101022 15 0.0 0.0 0.00 0.00 0.00 97 1008.5
20260905100522 15 0.0 0.0 0.00 0.00 0.00 97 1008.3
20260905100022 15 0.0 0.0 0.00 0.00 0.00 97 1008.4
20260905095521 15 0.0 0.0 0.00 0.00 0.00 97 1008.3
20260905095041 14 0.0 0.0 0.00 0.00 0.00 97 1008.4
20260905094523 15 0.0 0.0 0.00 0.00 0.00 97 1008.2
20260905094022 15 0.0 0.0 0.00 0.00 0.00 97 1008.2
20260905093522 15 0.0 0.0 0.00 0.00 0.00 97 1008.2
20260905093022 15 0.0 0.0 0.00 0.00 0.00 96 1008.2
20260905092522 15 0.0 0.0 0.00 0.00 0.00 96 1008.3
20260905092021 15 0.0 0.0 0.00 0.00 0.00 96 1008.2
20260905091521 15 0.0 0.0 0.00 0.00 0.00 96 1008.1
20260905091041 15 0.0 0.0 0.00 0.00 0.00 96 1008.1
20260905090523 15 0.0 0.0 0.00 0.00 0.00 96 1008.1
20260905090023 15 0.0 0.0 0.00 0.00 0.00 96 1008.1
20260905085522 15 0.0 0.0 0.00 0.00 0.00 96 1008.1
20260905085022 15 0.0 0.0 0.00 0.00 0.00 95 1008.1
20260905084522 15 0.0 0.0 0.00 0.00 0.00 95 1008.0
20260905084022 15 0.0 0.0 0.00 0.00 0.00 95 1008.0
20260905083521 15 0.0 0.0 0.00 0.00 0.00 95 1008.1
20260905083021 15 0.0 0.0 0.00 0.00 0.00 95 1008.0